Weather History for KMBG - April, 2014

Change the Weather History Date:

Saturday, April 12, 2014

  Actual Average Record
Temperature  
Mean Temperature 51 °F 44 °F  
Max Temperature 66 °F 57 °F 80 °F (2003)
Min Temperature 35 °F 31 °F 9 °F (1957)
Degree Days  
Heating Degree Days 14 21  
Month to date heating degree days 303 283  
Since 1 July heating degree days 7987 7285  
Cooling Degree Days 0 0  
Month to date cooling degree days 0 0  
Year to date cooling degree days 0 0  
Moisture  
Dew Point 34 °F    
Average Humidity 60    
Maximum Humidity 89    
Minimum Humidity 31    
Precipitation  
Precipitation 0.00 in 0.04 in 1.15 in (1911)
Month to date precipitation 0.31 0.42  
Year to date precipitation 1.43 2.05  
Snow  
Snow 0.00 in - - ()
Month to date snowfall 3.5  
Since 1 July snowfall 44.3  
Snow Depth 0.00 in    
Sea Level Pressure  
Sea Level Pressure 29.76 in    
Wind  
Wind Speed 16 mph (North)    
Max Wind Speed 28 mph    
Max Gust Speed 35 mph    
Visibility 10 miles    
Events      
T = Trace of Precipitation, MM = Missing Value Source: NWS Daily Summary

Daily Weather History Graph

Daily Weather History Graph

Search for Another Location

Airport or City:

Trip Planner

Search our weather history database for the weather conditions in past years. The results will help you decide how hot, cold, wet, or windy it might be!

Date:

Astronomy

Apr. 12, 2014 Rise Set
Actual Time 7:01 AM CDT 8:24 PM CDT
Civil Twilight 6:30 AM CDT 8:54 PM CDT
Nautical Twilight 5:53 AM CDT 9:32 PM CDT
Astronomical Twilight 5:14 AM CDT 10:12 PM CDT
Moon 5:58 PM CDT (4/12) 5:36 AM CDT (4/12)
Length of Visible Light 14h 24m
Length of Day
13h 22m
Waxing Gibbous, 93% of the Moon is Illuminated
Apr 12
Waxing Gibbous
Apr 15
Full
Apr 22
Last Quarter
Apr 29
New
May 6
First Quarter

Hourly Weather History & Observations

Time (CDT) Temp. Windchill Dew Point Humidity Pressure Visibility Wind Dir Wind Speed Gust Speed Precip Events Conditions
12:52 AM 46.9 °F - 35.1 °F 63% 29.72 in 10.0 mi East 23.0 mph 29.9 mph 0.00 in   Mostly Cloudy
1:52 AM 44.1 °F 35.7 °F 37.0 °F 76% 29.68 in 10.0 mi East 20.7 mph 28.8 mph N/A   Clear
2:52 AM 44.1 °F 35.4 °F 36.0 °F 73% 29.66 in 10.0 mi East 21.9 mph 32.2 mph N/A   Clear
3:52 AM 43.0 °F 34.0 °F 36.0 °F 76% 29.65 in 10.0 mi East 21.9 mph 31.1 mph N/A   Clear
4:52 AM 43.0 °F 33.8 °F 35.1 °F 74% 29.65 in 10.0 mi East 23.0 mph - N/A   Clear
5:52 AM 39.9 °F 35.8 °F 35.1 °F 83% 29.68 in 10.0 mi SSW 5.8 mph - N/A   Clear
6:52 AM 35.1 °F 30.1 °F 32.0 °F 89% 29.70 in 10.0 mi NW 5.8 mph - N/A   Clear
7:52 AM 37.0 °F 34.5 °F 34.0 °F 89% 29.73 in 10.0 mi NW 3.5 mph - N/A   Clear
8:52 AM 41.0 °F 35.8 °F 35.1 °F 79% 29.74 in 10.0 mi NW 8.1 mph - N/A   Clear
9:52 AM 45.0 °F 40.6 °F 36.0 °F 71% 29.73 in 10.0 mi NW 8.1 mph - N/A   Clear
10:52 AM 48.0 °F - 36.0 °F 63% 29.74 in 10.0 mi NW 8.1 mph - N/A   Clear
11:52 AM 54.0 °F - 36.0 °F 51% 29.73 in 10.0 mi Variable 3.5 mph - N/A   Scattered Clouds
12:52 PM 60.1 °F - 34.0 °F 38% 29.72 in 10.0 mi WNW 9.2 mph - N/A   Clear
1:52 PM 64.9 °F - 33.1 °F 31% 29.70 in 10.0 mi NNW 21.9 mph 27.6 mph N/A   Partly Cloudy
2:52 PM 61.0 °F - 33.1 °F 35% 29.72 in 10.0 mi NNW 19.6 mph - N/A   Mostly Cloudy
3:52 PM 57.9 °F - 33.1 °F 39% 29.73 in 10.0 mi NNW 23.0 mph - N/A   Overcast
4:52 PM 57.9 °F - 35.1 °F 42% 29.74 in 10.0 mi North 21.9 mph 27.6 mph N/A   Mostly Cloudy
5:52 PM 54.0 °F - 33.1 °F 45% 29.78 in 10.0 mi North 24.2 mph 31.1 mph N/A   Overcast
6:52 PM 50.0 °F - 34.0 °F 54% 29.81 in 10.0 mi North 21.9 mph 31.1 mph N/A   Overcast
7:52 PM 46.0 °F 38.5 °F 34.0 °F 63% 29.85 in 10.0 mi North 19.6 mph 27.6 mph N/A   Overcast
8:52 PM 44.1 °F 36.2 °F 33.1 °F 65% 29.88 in 10.0 mi North 18.4 mph - N/A   Overcast
9:52 PM 42.1 °F 34.9 °F 32.0 °F 67% 29.91 in 10.0 mi North 13.8 mph - N/A   Overcast
10:52 PM 41.0 °F 32.5 °F 30.9 °F 67% 29.93 in 10.0 mi North 17.3 mph 24.2 mph N/A   Overcast
11:52 PM 37.9 °F 27.9 °F 30.0 °F 73% 29.95 in 10.0 mi NNW 19.6 mph - N/A   Mostly Cloudy